Weather History for Athens, OH

Change the Weather History Date:

Wednesday, March 26, 2014

  Actual Average (KPKB) Record (KPKB)
Temperature  
Mean Temperature 26 °F 47 °F  
Max Temperature 36 °F 58 °F 84 °F (1907)
Min Temperature 16 °F 36 °F 14 °F (1940)
Degree Days  
Heating Degree Days 39 18  
Month to date heating degree days 584  
Since 1 July heating degree days 4374  
Cooling Degree Days 0 0  
Month to date cooling degree days 0  
Year to date cooling degree days 0  
Moisture  
Dew Point 10 °F    
Average Humidity 54    
Maximum Humidity 85    
Minimum Humidity 29    
Precipitation  
Precipitation 0.00 in 0.12 in 1.23 in (2002)
Month to date precipitation 3.10  
Year to date precipitation 8.75  
Sea Level Pressure  
Sea Level Pressure 30.27 in    
Wind  
Wind Speed 7 mph (WNW)    
Max Wind Speed 16 mph    
Max Gust Speed 22 mph    
Visibility 10 miles    
Events Snow    
T = Trace of Precipitation, MM = Missing Value Source: NWS Daily Summary

Daily Weather History Graph

Daily Weather History Graph

Search for Another Location

Airport:

Trip Planner

Search our weather history database for the weather conditions in past years. The results will help you decide how hot, cold, wet, or windy it might be!

Date:

Astronomy

Mar. 26, 2014 Rise Set
Actual Time 7:22 AM EDT 7:46 PM EDT
Civil Twilight 6:56 AM EDT 8:13 PM EDT
Nautical Twilight 6:24 AM EDT 8:45 PM EDT
Astronomical Twilight 5:52 AM EDT 9:17 PM EDT
Moon 4:28 AM EDT 3:25 PM EDT
Length of Visible Light 13h 17m
Length of Day
12h 23m
Waning Crescent, 22% of the Moon is Illuminated
Mar 26
Waning Crescent
Mar 30
New
Apr 7
First Quarter
Apr 15
Full
Apr 22
Last Quarter

Hourly Weather History & Observations

Time (EDT) Temp. Windchill Dew Point Humidity Pressure Visibility Wind Dir Wind Speed Gust Speed Precip Events Conditions
12:15 AM 25.7 °F 17.1 °F 18.0 °F 73% 30.13 in 10.0 mi West 8.1 mph - N/A   Overcast
12:35 AM 26.1 °F 17.6 °F 18.1 °F 72% 30.14 in 10.0 mi WNW 8.1 mph - N/A   Overcast
12:55 AM 25.7 °F 18.0 °F 18.9 °F 75% 30.14 in 7.0 mi NW 6.9 mph - N/A Snow Light Snow
1:15 AM 24.8 °F 20.5 °F 20.7 °F 84% 30.15 in 2.0 mi NNW 3.5 mph - N/A Snow Light Snow
1:35 AM 24.6 °F - 20.7 °F 85% 30.15 in 10.0 mi Calm Calm - N/A   Overcast
1:55 AM 24.8 °F 16.1 °F 16.3 °F 70% 30.16 in 10.0 mi NW 8.1 mph - N/A   Overcast
2:15 AM 24.6 °F 11.7 °F 11.1 °F 57% 30.17 in 10.0 mi WNW 16.1 mph 21.9 mph N/A   Overcast
2:35 AM 23.7 °F 12.6 °F 10.4 °F 57% 30.17 in 10.0 mi NW 11.5 mph 17.3 mph N/A   Mostly Cloudy
2:55 AM 22.8 °F 15.5 °F 10.4 °F 59% 30.18 in 10.0 mi NW 5.8 mph - N/A   Scattered Clouds
3:15 AM 22.5 °F 11.1 °F 9.7 °F 58% 30.18 in 10.0 mi WNW 11.5 mph 16.1 mph N/A   Clear
3:35 AM 21.9 °F 12.5 °F 9.0 °F 58% 30.18 in 10.0 mi WNW 8.1 mph - N/A   Clear
3:55 AM 21.4 °F 11.1 °F 9.5 °F 60% 30.18 in 10.0 mi West 9.2 mph - N/A   Scattered Clouds
4:15 AM 21.2 °F 11.7 °F 9.9 °F 62% 30.19 in 10.0 mi NW 8.1 mph - N/A   Scattered Clouds
4:35 AM 20.3 °F 11.5 °F 9.3 °F 63% 30.20 in 10.0 mi NW 6.9 mph - N/A   Scattered Clouds
4:55 AM 19.8 °F 11.9 °F 9.3 °F 64% 30.21 in 10.0 mi West 5.8 mph - N/A   Clear
5:15 AM 19.0 °F 8.2 °F 7.9 °F 62% 30.22 in 10.0 mi WNW 9.2 mph - N/A   Clear
5:35 AM 18.5 °F 6.8 °F 6.8 °F 60% 30.22 in 10.0 mi WNW 10.4 mph - N/A   Clear
5:55 AM 18.5 °F 9.3 °F 6.4 °F 59% 30.23 in 10.0 mi WNW 6.9 mph - N/A   Clear
6:15 AM 18.1 °F 10.0 °F 6.6 °F 61% 30.24 in 10.0 mi WNW 5.8 mph - N/A   Clear
6:35 AM 17.8 °F 10.9 °F 6.6 °F 62% 30.24 in 10.0 mi NW 4.6 mph - N/A   Clear
6:55 AM 17.2 °F 10.2 °F 6.6 °F 63% 30.26 in 10.0 mi WNW 4.6 mph - N/A   Clear
7:15 AM 16.7 °F 9.6 °F 7.2 °F 66% 30.27 in 10.0 mi West 4.6 mph - N/A   Clear
7:35 AM 16.5 °F 9.4 °F 7.2 °F 67% 30.28 in 10.0 mi WNW 4.6 mph - N/A   Clear
7:55 AM 17.1 °F 8.7 °F 7.3 °F 66% 30.29 in 10.0 mi WNW 5.8 mph - N/A   Clear
8:15 AM 18.0 °F 9.8 °F 7.7 °F 64% 30.31 in 10.0 mi WNW 5.8 mph - N/A   Clear
8:35 AM 18.9 °F 8.8 °F 8.1 °F 63% 30.32 in 10.0 mi West 8.1 mph - N/A   Clear
8:55 AM 19.8 °F 11.9 °F 8.1 °F 61% 30.32 in 10.0 mi WNW 5.8 mph - N/A   Clear
9:15 AM 20.7 °F 11.9 °F 9.0 °F 61% 30.33 in 10.0 mi WNW 6.9 mph - N/A   Clear
9:35 AM 21.6 °F 14.0 °F 9.3 °F 59% 30.34 in 10.0 mi NNW 5.8 mph - N/A   Clear
9:55 AM 22.1 °F 14.7 °F 9.5 °F 58% 30.34 in 10.0 mi WNW 5.8 mph - N/A   Clear
10:15 AM 23.0 °F 14.7 °F 10.0 °F 58% 30.35 in 10.0 mi North 6.9 mph - N/A   Clear
10:35 AM 23.7 °F 15.6 °F 8.1 °F 51% 30.36 in 10.0 mi North 6.9 mph - N/A   Clear
10:55 AM 24.4 °F 15.6 °F 8.2 °F 50% 30.36 in 10.0 mi NW 8.1 mph - N/A   Clear
11:15 AM 24.8 °F 14.6 °F 8.2 °F 49% 30.36 in 10.0 mi NNW 10.4 mph - N/A   Clear
11:35 AM 25.9 °F 14.8 °F 8.4 °F 48% 30.36 in 10.0 mi NNW 12.7 mph - N/A   Scattered Clouds
11:55 AM 26.4 °F 18.9 °F 8.1 °F 46% 30.36 in 10.0 mi WNW 6.9 mph - N/A   Scattered Clouds
12:15 PM 27.0 °F - 6.6 °F 42% 30.35 in 10.0 mi Calm Calm - N/A   Scattered Clouds
12:35 PM 27.9 °F 20.6 °F 7.3 °F 42% 30.35 in 10.0 mi West 6.9 mph - N/A   Clear
12:55 PM 29.1 °F 25.4 °F 8.8 °F 43% 30.34 in 10.0 mi North 3.5 mph - N/A   Scattered Clouds
1:15 PM 29.5 °F - 6.4 °F 38% 30.33 in 10.0 mi Calm Calm - N/A   Clear
1:35 PM 30.6 °F 27.1 °F 6.4 °F 36% 30.33 in 10.0 mi WNW 3.5 mph 10.4 mph N/A   Clear
1:55 PM 31.8 °F 25.4 °F 7.0 °F 35% 30.34 in 10.0 mi West 6.9 mph 17.3 mph N/A   Clear
2:15 PM 32.0 °F 28.7 °F 7.0 °F 35% 30.34 in 10.0 mi West 3.5 mph 16.1 mph N/A   Scattered Clouds
2:35 PM 32.7 °F 26.4 °F 6.8 °F 34% 30.31 in 10.0 mi NW 6.9 mph - N/A   Clear
2:55 PM 32.5 °F 28.1 °F 6.1 °F 33% 30.31 in 10.0 mi West 4.6 mph - N/A   Clear
3:15 PM 32.9 °F 28.5 °F 5.7 °F 32% 30.30 in 10.0 mi NNW 4.6 mph 10.4 mph N/A   Clear
3:35 PM 33.8 °F 28.6 °F 6.3 °F 32% 30.30 in 10.0 mi NW 5.8 mph 16.1 mph N/A   Clear
3:55 PM 33.8 °F 28.6 °F 6.3 °F 32% 30.30 in 10.0 mi North 5.8 mph - N/A   Clear
4:15 PM 34.3 °F - 7.0 °F 32% 30.29 in 10.0 mi Calm Calm - N/A   Clear
4:35 PM 35.6 °F 29.9 °F 7.2 °F 31% 30.29 in 10.0 mi SW 6.9 mph - N/A   Clear
5:35 PM 35.6 °F 28.6 °F 6.3 °F 29% 30.27 in 10.0 mi WNW 9.2 mph - N/A   Clear
6:15 PM 36.0 °F 30.3 °F 7.0 °F 30% 30.27 in 10.0 mi West 6.9 mph - N/A   Clear
7:15 PM 34.7 °F 29.6 °F 7.0 °F 31% 30.27 in 10.0 mi West 5.8 mph - N/A   Clear
8:15 PM 31.1 °F - 9.9 °F 41% 30.26 in 10.0 mi Calm Calm - N/A   Clear
8:55 PM 28.2 °F - 12.2 °F 51% 30.27 in 10.0 mi Calm Calm - N/A   Clear
9:55 PM 25.7 °F - 12.6 °F 58% 30.28 in 10.0 mi Calm Calm - N/A   Clear
10:55 PM 23.9 °F - 14.4 °F 67% 30.29 in 10.0 mi Calm Calm - N/A   Clear
11:15 PM 23.2 °F - 15.3 °F 72% 30.29 in 10.0 mi Calm Calm - N/A   Clear
11:35 PM 23.4 °F - 13.6 °F 66% 30.29 in 10.0 mi Calm Calm - N/A   Clear
11:55 PM 22.6 °F - 14.0 °F 69% 30.30 in 10.0 mi Calm Calm - N/A   Clear